Location: Vanderbilt Beach
(26.2700°N, 81.7900°W)
Time: 02:51:29
(UTC-04:00)

Envisat - Visible Passes

Search period start: 20 September 2020 00:00
Search period end: 30 September 2020 00:00
Orbit: 764 x 766 km, 98.1° (Epoch: 20 September)

Date Brightness Start Highest point End Pass type
(mag) Time Alt. Az. Time Alt. Az. Time Alt. Az.
21 Sep 6.0 19:51:28 10° SW 19:55:10 20° W 19:58:53 10° NW visible
22 Sep 5.9 06:29:07 10° NE 06:32:52 21° E 06:36:36 10° SE visible
24 Sep 5.6 19:39:32 10° SSW 19:43:46 27° W 19:48:01 10° NW visible
25 Sep 6.1 06:18:30 10° ENE 06:21:27 15° E 06:24:24 10° SE visible
26 Sep 6.3 20:06:50 10° SW 20:09:19 14° W 20:11:49 10° WNW visible
27 Sep 5.3 06:42:34 10° NE 06:47:00 30° E 06:51:24 10° SSE visible
28 Sep 6.5 06:08:28 10° ENE 06:10:01 11° E 06:11:34 10° ESE visible
29 Sep 6.1 19:54:28 10° SW 19:57:54 18° W 20:01:22 10° NW visible
